Stations météo

réclame
Mon MeteoGroup
Goteborg, Suède (2513): Température de l'air & dewpoint: 17.04.2018 04:00:00 - 23.04.2018 04:00:00 (CEST)Goteborg, Suède (2513): Vitesse du vent & gusts: 17.04.2018 04:00:00 - 23.04.2018 04:00:00 (CEST)Goteborg, Suède (2513): Direction du vent: 17.04.2018 04:00:00 - 23.04.2018 04:00:00 (CEST)Goteborg, Suède (2513): reduced air pressure: 17.04.2018 04:00:00 - 23.04.2018 04:00:00 (CEST)Goteborg, Suède (2513): visibility: 17.04.2018 04:00:00 - 23.04.2018 04:00:00 (CEST)Goteborg, Suède (2513): Quantités de précipitations: 17.04.2018 04:00:00 - 23.04.2018 04:00:00 (CEST)
Date & Time tt [°C] td [°C] ff [km/h] ff [knt] fx [km/h] fx [knt] dd ppp [hPa] vv [km] rr [mm]
23.04.2018 04:00:00 - - - - - - - - - -
23.04.2018 03:00:00 8,4 2,8 6 4 16 9 SSE 1009,1 50 0,0
23.04.2018 02:00:00 8,6 2,2 6 3 11 6 ESE 1009,9 50 0,0
23.04.2018 01:00:00 8,5 2,5 3 2 8 5 E 1010,7 40 0,0
23.04.2018 00:00:00 9,6 3,1 5 3 15 8 SSE 1011,1 50 0,0
22.04.2018 23:00:00 9,1 4,3 6 3 11 6 SE 1011,4 50 0,0
22.04.2018 22:00:00 8,7 5,3 3 2 7 4 ENE 1012,4 29 0,0
22.04.2018 21:00:00 7,7 5,5 0 0 8 5 N 1012,9 20 0,0
22.04.2018 20:00:00 7,6 5,4 6 3 21 11 W 1013,1 23 0,0
22.04.2018 19:00:00 11,1 4,5 10 5 13 7 WSW 1013,3 37 0,0
22.04.2018 18:00:00 12,0 7,1 6 3 14 8 SSW 1013,7 34 0,0
22.04.2018 17:00:00 9,8 5,8 9 5 24 13 SW 1015,0 23 0,0
22.04.2018 16:00:00 11,2 6,1 16 9 23 13 WSW 1015,1 22 0,0
22.04.2018 15:00:00 11,6 5,9 10 6 19 11 WSW 1015,5 21 0,0
22.04.2018 14:00:00 11,0 6,1 11 6 26 14 WSW 1016,0 21 0,0
22.04.2018 13:00:00 9,9 6,1 18 10 24 13 WSW 1016,4 25 0,0
22.04.2018 12:00:00 11,4 7,5 9 5 17 9 SW 1016,5 23 0,0
22.04.2018 11:00:00 10,1 4,2 4 2 11 6 S 1017,0 25 0,0
22.04.2018 10:00:00 8,0 5,1 5 3 11 6 SSW 1017,2 18 0,0
22.04.2018 09:00:00 7,0 5,9 2 1 9 5 SW 1017,1 14 0,0
22.04.2018 08:00:00 6,3 5,6 5 3 12 7 W 1017,1 10 0,0
22.04.2018 07:00:00 6,6 5,5 7 4 14 7 SSW 1016,8 12 0,0
22.04.2018 06:00:00 6,6 5,7 7 4 13 7 SSW 1016,6 10 0,0
22.04.2018 05:00:00 6,5 5,8 7 4 14 7 S 1016,7 8 0,0
22.04.2018 04:00:00 6,0 5,1 5 3 9 5 SSE 1016,8 8 0,0
22.04.2018 03:00:00 6,6 5,5 3 2 10 5 SSE 1016,6 10 0,0
22.04.2018 02:00:00 6,9 5,7 5 3 14 8 SW 1016,8 11 0,0
22.04.2018 01:00:00 7,0 5,8 6 3 11 6 SW 1016,9 12 0,0
22.04.2018 00:00:00 7,2 5,8 5 3 12 6 SSW 1016,7 14 0,0
21.04.2018 23:00:00 7,5 6,1 5 3 11 6 SW 1016,7 17 0,0
21.04.2018 22:00:00 8,1 5,6 9 5 19 11 WSW 1016,7 20 0,0
21.04.2018 21:00:00 8,5 5,4 10 6 21 11 WSW 1016,9 21 0,0
21.04.2018 20:00:00 9,3 5,5 14 7 26 14 WSW 1016,8 20 0,0
21.04.2018 19:00:00 10,6 6,5 16 8 31 17 WSW 1017,0 22 0,0
21.04.2018 18:00:00 12,0 7,3 16 9 29 16 W 1017,1 25 0,0
21.04.2018 17:00:00 13,4 4,5 14 7 31 17 WNW 1017,1 31 0,0
21.04.2018 16:00:00 13,1 4,5 18 10 35 19 WNW 1017,3 29 0,0
21.04.2018 15:00:00 12,8 4,7 21 11 36 20 W 1017,4 39 0,0
21.04.2018 14:00:00 12,6 4,6 21 11 37 20 WNW 1017,4 34 0,0
21.04.2018 13:00:00 12,2 4,7 19 11 35 19 WNW 1017,6 32 0,0
21.04.2018 12:00:00 11,8 5,0 23 12 37 20 WNW 1017,3 29 0,0
21.04.2018 11:00:00 11,5 4,7 19 10 34 19 W 1017,0 34 0,0
21.04.2018 10:00:00 11,2 4,9 20 11 40 22 W 1016,5 33 0,0
21.04.2018 09:00:00 10,0 5,0 22 12 40 22 WNW 1016,0 24 0,0
21.04.2018 08:00:00 9,6 4,8 16 9 34 18 WNW 1015,5 29 0,0
21.04.2018 07:00:00 8,9 4,7 18 10 34 18 WNW 1014,9 28 0,0
21.04.2018 06:00:00 8,8 4,6 15 8 30 16 WNW 1014,7 31 0,0
21.04.2018 05:00:00 9,0 4,6 14 7 30 16 W 1014,2 37 0,0
21.04.2018 04:00:00 9,9 3,8 19 10 33 18 WNW 1014,2 43 0,0
21.04.2018 03:00:00 9,5 4,5 13 7 28 15 WNW 1014,1 49 0,0
21.04.2018 02:00:00 10,5 4,2 14 8 25 14 WNW 1014,0 46 0,0
21.04.2018 01:00:00 10,1 5,3 6 3 16 8 WNW 1014,0 30 0,0
21.04.2018 00:00:00 9,8 6,3 7 4 16 9 W 1013,9 11 0,0
20.04.2018 23:00:00 10,0 6,9 10 5 24 13 WNW 1013,9 7 0,0
20.04.2018 22:00:00 12,6 7,7 16 8 31 17 WSW 1013,4 10 0,0
20.04.2018 21:00:00 14,0 7,3 11 6 21 11 WSW 1013,2 7 0,0
20.04.2018 20:00:00 14,5 7,8 8 4 16 9 SW 1013,2 8 0,0
20.04.2018 19:00:00 15,8 9,7 5 3 29 16 SW 1013,6 10 0,0
20.04.2018 18:00:00 15,9 9,1 21 11 37 20 W 1014,6 11 0,0
20.04.2018 17:00:00 20,6 15,8 18 10 49 26 SSW 1014,1 13 0,0
20.04.2018 16:00:00 21,5 16,5 22 12 44 24 SSW 1015,2 16 0,0
20.04.2018 15:00:00 22,0 16,5 26 14 45 25 S 1016,3 14 0,0
20.04.2018 14:00:00 22,1 17,0 16 9 36 19 S 1017,4 18 0,0
20.04.2018 13:00:00 21,5 17,3 15 8 26 14 S 1018,5 14 0,0
20.04.2018 12:00:00 19,7 16,5 14 7 24 13 S 1019,5 15 0,0
20.04.2018 11:00:00 18,3 15,5 14 7 24 13 S 1020,2 15 0,0
20.04.2018 10:00:00 17,5 14,6 10 5 21 11 S 1021,0 14 0,0
20.04.2018 09:00:00 15,7 11,9 5 3 17 9 S 1021,7 15 0,0
20.04.2018 08:00:00 13,1 9,4 9 5 18 10 S 1022,3 16 0,0
20.04.2018 07:00:00 11,8 9,0 8 4 18 10 S 1022,8 13 0,0
20.04.2018 06:00:00 11,4 9,0 9 5 21 11 S 1023,4 13 0,0
20.04.2018 05:00:00 11,5 8,9 6 3 11 6 S 1024,1 19 0,0
20.04.2018 04:00:00 11,9 8,6 5 3 12 7 S 1024,9 25 0,0
20.04.2018 03:00:00 11,8 8,5 8 5 19 10 S 1025,4 29 0,0
20.04.2018 02:00:00 11,9 8,9 6 3 16 9 S 1026,0 25 0,0
20.04.2018 01:00:00 11,9 9,1 8 4 14 8 S 1026,5 21 0,0
20.04.2018 00:00:00 10,2 8,6 0 0 4 2 N 1027,1 18 0,0
19.04.2018 23:00:00 11,5 8,9 3 2 8 4 SE 1027,6 23 0,0
19.04.2018 22:00:00 12,3 9,7 3 2 7 4 SSE 1028,1 36 0,0
19.04.2018 21:00:00 11,8 9,0 0 0 6 4 N 1028,4 36 0,0
19.04.2018 20:00:00 12,9 9,3 6 3 14 7 WSW 1028,7 40 0,0
19.04.2018 19:00:00 14,4 12,6 10 6 14 8 WSW 1029,3 34 0,0
19.04.2018 18:00:00 14,9 12,9 8 4 18 10 WSW 1029,7 24 0,0
19.04.2018 17:00:00 15,4 13,2 10 6 16 9 WSW 1030,1 35 0,0
19.04.2018 16:00:00 15,3 12,6 5 3 15 8 WSW 1030,6 28 0,0
19.04.2018 15:00:00 13,0 10,9 10 6 19 10 WSW 1031,5 20 0,0
19.04.2018 14:00:00 13,4 10,9 12 6 16 9 WSW 1031,5 15 0,0
19.04.2018 13:00:00 13,1 10,1 10 5 15 8 WSW 1031,7 14 0,0
19.04.2018 12:00:00 12,7 10,4 6 3 9 5 WSW 1031,7 10 0,0
19.04.2018 11:00:00 12,1 10,3 4 2 7 4 W 1031,4 6 0,0
19.04.2018 10:00:00 11,1 10,5 3 2 9 5 WNW 1031,7 3,2 0,0
19.04.2018 09:00:00 10,6 10,1 4 2 10 5 W 1031,5 2,0 0,0
19.04.2018 08:00:00 10,3 9,7 4 2 8 4 SW 1031,4 2,6 0,0
19.04.2018 07:00:00 10,0 9,4 2 1 6 3 W 1030,9 3,1 0,0
19.04.2018 06:00:00 9,7 9,4 3 1 4 2 W 1030,8 3,4 0,0
19.04.2018 05:00:00 9,4 9,1 0 0 5 3 N 1030,9 3,3 0,0
19.04.2018 04:00:00 9,3 9,0 0 0 9 5 N 1031,1 3,7 0,0
19.04.2018 03:00:00 9,0 8,7 3 2 7 4 SW 1030,9 2,8 0,0
19.04.2018 02:00:00 8,7 8,4 4 2 13 7 SW 1030,9 2,2 0,0
19.04.2018 01:00:00 8,8 8,2 6 4 16 8 WNW 1031,1 4,6 0,0
19.04.2018 00:00:00 10,1 9,0 5 3 16 9 W 1030,7 7 0,0
18.04.2018 23:00:00 10,1 8,9 6 4 16 9 WSW 1030,2 7 0,0
18.04.2018 22:00:00 10,1 8,4 9 5 16 9 WSW 1030,2 9 0,0
18.04.2018 21:00:00 11,4 9,0 6 3 16 9 SW 1030,3 10 0,0
18.04.2018 20:00:00 12,5 9,7 6 3 21 11 W 1029,8 11 0,0
18.04.2018 19:00:00 14,0 11,7 7 4 23 13 WSW 1029,2 12 0,0
18.04.2018 18:00:00 14,5 11,6 14 8 25 13 WSW 1029,6 12 0,0
18.04.2018 17:00:00 14,8 11,4 9 5 22 12 WSW 1029,4 12 0,0
18.04.2018 16:00:00 14,3 10,9 15 8 23 12 WSW 1029,0 10 0,0
18.04.2018 15:00:00 15,2 11,8 11 6 18 10 WSW 1028,9 9 0,0
18.04.2018 14:00:00 12,8 8,1 8 5 17 9 WSW 1028,8 8 0,0
18.04.2018 13:00:00 11,5 8,9 10 5 18 10 WSW 1028,5 9 0,0
18.04.2018 12:00:00 10,3 8,6 5 3 12 6 WSW 1027,9 6 0,0
18.04.2018 11:00:00 10,0 8,4 7 4 19 10 WSW 1027,4 9 0,0
18.04.2018 10:00:00 9,9 8,0 10 5 24 13 SW 1027,0 14 0,0
18.04.2018 09:00:00 10,5 7,0 8 4 22 12 WSW 1026,1 13 0,0
18.04.2018 08:00:00 10,1 6,3 7 4 26 14 SW 1025,5 14 0,0
18.04.2018 07:00:00 9,8 6,0 11 6 22 12 SW 1025,3 15 0,0
18.04.2018 06:00:00 10,4 6,2 13 7 27 14 S 1024,9 17 0,0
18.04.2018 05:00:00 10,7 6,3 9 5 23 13 SSW 1025,3 18 0,0
18.04.2018 04:00:00 10,3 6,3 10 5 20 11 SSW 1025,3 15 0,0
18.04.2018 03:00:00 8,9 6,3 8 4 16 8 S 1025,3 11 0,0
18.04.2018 02:00:00 8,1 6,4 6 3 15 8 S 1025,5 9 0,0
18.04.2018 01:00:00 8,0 6,5 7 4 14 7 SSE 1025,5 8 0,0
18.04.2018 00:00:00 8,1 6,6 7 4 15 8 SSE 1025,3 8 0,0
17.04.2018 23:00:00 8,4 6,7 8 4 14 7 SSE 1025,4 8 0,0
17.04.2018 22:00:00 8,5 6,6 6 4 13 7 S 1025,2 9 0,0
17.04.2018 21:00:00 9,2 7,1 8 4 16 9 S 1024,9 10 0,0
17.04.2018 20:00:00 9,1 7,1 8 5 16 9 S 1024,5 10 0,0
17.04.2018 19:00:00 9,2 7,3 7 4 16 9 S 1024,7 10 0,0
17.04.2018 18:00:00 9,8 7,2 10 6 18 10 SW 1024,7 11 0,0
17.04.2018 17:00:00 10,6 7,3 11 6 18 10 SW 1024,4 15 0,0
17.04.2018 16:00:00 10,0 7,2 8 5 13 7 WSW 1024,0 14 0,0
17.04.2018 15:00:00 9,4 7,3 4 2 17 9 W 1023,9 17 0,0
17.04.2018 14:00:00 8,3 7,4 11 6 19 10 WSW 1023,6 9 0,0
17.04.2018 13:00:00 7,8 7,5 10 5 16 8 WSW 1023,4 4,6 0,0
17.04.2018 12:00:00 7,3 7,2 8 4 16 9 WSW 1022,9 6 0,0
17.04.2018 11:00:00 7,1 7,0 5 3 12 7 SSW 1022,2 1,7 0,0
17.04.2018 10:00:00 6,5 6,5 8 4 19 10 WSW 1021,8 3,7 0,0
17.04.2018 09:00:00 6,8 6,7 9 5 14 8 WSW 1021,0 1,6 0,0
17.04.2018 08:00:00 6,8 6,7 8 4 18 10 W 1020,4 1,6 0,0
17.04.2018 07:00:00 7,3 7,0 6 4 18 10 W 1019,9 0,8 0,0
17.04.2018 06:00:00 8,4 7,6 6 4 11 6 SW 1018,9 3,3 0,0
17.04.2018 05:00:00 8,4 7,5 3 1 6 3 ESE 1018,5 7 0,0
17.04.2018 04:00:00 8,5 7,4 3 1 9 5 SE 1018,4 6 0,0

tt = Température de l'air
td = dewpoint
ff = Vitesse du vent
fx = gusts
dd = Direction du vent
ppp = reduced air pressure
vv = visibility
rr = Quantités de précipitations

stations d'obs. à proximité